{"data":{"norad_id":40053,"epoch":"2026-05-25T04:03:29.730240Z","epoch_age_seconds":60363,"freshness":"FRESH","line1":"1 40053U 14034A   26145.16909410  .00000283  00000+0  67065-4 0  9992","line2":"2 40053  98.0636 208.2526 0001184  81.8907 278.2428 14.60934281633775","mean_motion":14.60934281,"eccentricity":0.0001184,"inclination_deg":98.0636,"raan_deg":208.2526,"arg_perigee_deg":81.8907,"mean_anomaly_deg":278.2428,"bstar":6.7065e-5,"rev_number":63377,"period_min":98.567062100448,"perigee_km":689.32200173657,"apogee_km":690.99577420284,"semimajor_km":7068.2958879697,"source":"CELESTRAK","updated_at":"2026-05-25T13:38:12.785418Z"}}